Fort Wayne, IN

7:26 AM EST on November 21, 2019 (GMT -0500)
Fort Wayne International

Weather History for KFWA - September, 2019

Change the Weather History Date:

Sunday, September 15, 2019

  Actual Average Record
Temperature  
Mean Temperature 68 °F 65 °F  
Max Temperature 76 °F 77 °F 99 °F (1939)
Min Temperature 60 °F 53 °F 36 °F (1902)
Degree Days  
Heating Degree Days 0 3  
Month to date heating degree days 10 25  
Since 1 July heating degree days 11 37  
Cooling Degree Days 3 3  
Month to date cooling degree days 65 59  
Year to date cooling degree days 903 776  
Growing Degree Days 18 (Base 50)    
Moisture  
Dew Point 61 °F    
Average Humidity 77    
Maximum Humidity 93    
Minimum Humidity 60    
Precipitation  
Precipitation T in 0.09 in 0.92 in (1898)
Month to date precipitation 0.82 1.42  
Year to date precipitation 29.09 28.26  
Sea Level Pressure  
Sea Level Pressure 30.12 in    
Wind  
Wind Speed 6 mph (SSW)    
Max Wind Speed 16 mph    
Max Gust Speed 23 mph    
Visibility 10 miles    
Events Rain    
T = Trace of Precipitation, MM = Missing Value Source: NWS Daily Summary

Daily Weather History Graph

Daily Weather History Graph

Search for Another Location

Airport or City:

Astronomy

Sep. 15, 2019 Rise Set
Actual Time 7:21 AM EDT 7:50 PM EDT
Civil Twilight 6:53 AM EDT 8:17 PM EDT
Nautical Twilight 6:20 AM EDT 8:50 PM EDT
Astronomical Twilight 5:47 AM EDT 9:23 PM EDT
Moon 8:57 PM EDT (9/15) 8:30 AM EDT (9/15)
Length of Visible Light 13h 24m
Length of Day
12h 29m
Full, 98% of the Moon is Illuminated
Sep 15
Full
Sep 21
Last Quarter
Sep 28
New
Oct 5
First Quarter
Oct 13
Full

Hourly Weather History & Observations

Time (EDT) Temp. Dew Point Humidity Pressure Visibility Wind Dir Wind Speed Gust Speed Precip Events Conditions
12:54 AM 63.0 °F 59.0 °F 87% 30.19 in 10.0 mi SW 3.5 mph - N/A   Scattered Clouds
1:54 AM 62.6 °F 59.0 °F 88% 30.19 in 10.0 mi Calm Calm - N/A   Scattered Clouds
2:54 AM 62.1 °F 57.9 °F 86% 30.18 in 10.0 mi SSW 4.6 mph - N/A   Scattered Clouds
3:54 AM 61.0 °F 57.9 °F 90% 30.17 in 10.0 mi SSW 3.5 mph - N/A   Mostly Cloudy
4:54 AM 61.0 °F 57.9 °F 90% 30.17 in 10.0 mi West 4.6 mph - N/A   Overcast
5:54 AM 62.1 °F 59.0 °F 90% 30.16 in 10.0 mi SW 3.5 mph - N/A   Overcast
6:54 AM 63.0 °F 59.0 °F 87% 30.14 in 10.0 mi South 9.2 mph - N/A   Mostly Cloudy
7:54 AM 63.0 °F 60.1 °F 90% 30.16 in 10.0 mi SW 5.8 mph - 0.00 in Rain Light Rain
8:54 AM 64.9 °F 60.1 °F 84% 30.20 in 10.0 mi Calm Calm - 0.00 in   Overcast
9:54 AM 66.0 °F 61.0 °F 84% 30.19 in 10.0 mi SW 4.6 mph - 0.00 in Rain Light Rain
10:54 AM 66.0 °F 61.0 °F 84% 30.19 in 10.0 mi WSW 9.2 mph - 0.00 in   Overcast
11:54 AM 69.1 °F 62.1 °F 78% 30.18 in 10.0 mi SW 8.1 mph - 0.00 in   Overcast
12:54 PM 69.1 °F 61.0 °F 75% 30.18 in 10.0 mi SSW 11.5 mph - N/A   Overcast
1:54 PM 72.0 °F 61.0 °F 68% 30.13 in 10.0 mi SSW 11.5 mph - N/A   Overcast
2:54 PM 73.9 °F 61.0 °F 64% 30.10 in 10.0 mi SSW 12.7 mph - N/A   Mostly Cloudy
3:54 PM 73.9 °F 60.1 °F 62% 30.08 in 10.0 mi SSW 11.5 mph - N/A   Overcast
4:54 PM 75.0 °F 60.1 °F 60% 30.07 in 10.0 mi SSW 10.4 mph - N/A   Mostly Cloudy
5:54 PM 73.9 °F 60.1 °F 62% 30.06 in 10.0 mi SSW 10.4 mph - N/A   Mostly Cloudy
6:54 PM 73.9 °F 62.1 °F 66% 30.06 in 10.0 mi South 5.8 mph - N/A   Mostly Cloudy
7:54 PM 70.0 °F 63.0 °F 78% 30.04 in 10.0 mi South 5.8 mph - N/A   Mostly Cloudy
8:54 PM 68.0 °F 63.0 °F 84% 30.04 in 10.0 mi SSE 3.5 mph - N/A   Scattered Clouds
9:54 PM 64.9 °F 62.1 °F 90% 30.05 in 10.0 mi Calm Calm - N/A   Scattered Clouds
10:54 PM 66.0 °F 62.1 °F 87% 30.06 in 10.0 mi Calm Calm - N/A   Mostly Cloudy
11:54 PM 66.9 °F 63.0 °F 87% 30.05 in 10.0 mi Calm Calm - N/A   Overcast